This demonstration page uses our WeatherBlox Daily Observations layout. Learn more.

Hourly Observations for May 18, 2015

Temp ( °F °C ) Dew Point ( °F °C ) Humidity (%) Winds ( mph kmh ) Pressure ( in mb ) Visibility ( mi km ) Precip ( " mm )
12:15 am 00:15 Clear 55 13 50 10.2 83 83 NNW 10 17 30.09 1019 10 16.0934 0 0
12:35 am 00:35 Clear 55 12.9 50 10 83 83 N 13 20 30.09 1019 10 16.0934 0 0
12:55 am 00:55 Clear 54 12.3 49 9.7 84 84 N 12 19 30.09 1019 10 16.0934 0 0
1:15 am 01:15 Clear 53 11.9 48 9 83 83 N 10 17 30.12 1020 10 16.0934 0 0
1:35 am 01:35 Clear 53 11.5 47 8.5 82 82 N 13 20 30.12 1020 10 16.0934 0 0
1:55 am 01:55 Clear 52 11.2 46 8 81 81 N 16 26 30.12 1020 10 16.0934 0 0
2:15 am 02:15 Clear 51 10.7 45 7.4 80 80 N 20 31 30.12 1020 10 16.0934 0 0
2:35 am 02:35 Clear 49 9.6 43 6.2 80 80 N 13 20 30.15 1021 10 16.0934 0 0
2:55 am 02:55 Clear 48 9.1 42 5.5 78 78 N 14 22 30.15 1021 10 16.0934 0 0
3:15 am 03:15 Clear 47 8.6 42 5.4 81 81 N 14 22 30.15 1021 10 16.0934 0 0
3:35 am 03:35 Clear 47 8.3 42 5.5 83 83 N 13 20 30.15 1021 10 16.0934 0 0
3:55 am 03:55 Clear 47 8.1 41 5.2 82 82 N 13 20 30.18 1022 10 16.0934 0 0
4:15 am 04:15 Clear 46 7.9 41 5 82 82 N 13 20 30.18 1022 10 16.0934 0 0
4:35 am 04:35 Partly Cloudy 46 7.5 40 4.7 83 83 N 10 17 30.21 1023 10 16.0934 0 0
4:55 am 04:55 Partly Cloudy 46 7.5 40 4.3 80 80 N 13 20 30.21 1023 10 16.0934 0 0
5:15 am 05:15 Partly Cloudy 45 7.1 40 4.2 82 82 N 10 17 30.27 1025 10 16.0934 0 0
5:35 am 05:35 Partly Cloudy 44 6.8 39 4 83 83 N 10 17 30.27 1025 10 16.0934 0 0
5:55 am 05:55 Partly Cloudy 44 6.6 39 3.7 82 82 N 8 13 30.27 1025 10 16.0934 0 0
6:15 am 06:15 Partly Cloudy 44 6.5 39 3.7 83 83 N 8 13 30.27 1025 10 16.0934 0 0
6:35 am 06:35 Partly Cloudy 44 6.5 39 3.7 83 83 N 9 15 30.3 1026 10 16.0934 0 0
6:55 am 06:55 Partly Cloudy 44 6.7 39 4 83 83 N 10 17 30.3 1026 10 16.0934 0 0
7:15 am 07:15 Mostly Cloudy 46 7.6 40 4.5 81 81 N 12 19 30.3 1026 10 16.0934 0 0
7:35 am 07:35 Partly Cloudy 46 7.5 40 4.2 80 80 N 9 15 30.33 1027 10 16.0934 0 0
7:55 am 07:55 Sunny 46 8 40 4.6 79 79 N 12 19 30.3 1026 10 16.0934 0 0
8:15 am 08:15 Partly Cloudy 47 8.6 40 4.3 75 75 N 22 35 30.27 1025 10 16.0934 0 0
8:35 am 08:35 Mostly Cloudy 46 7.8 38 3.5 74 74 N 15 24 30.33 1027 10 16.0934 0 0
8:55 am 08:55 Mostly Cloudy 47 8.5 38 3.6 72 72 NNW 14 22 30.33 1027 10 16.0934 0 0
9:15 am 09:15 Partly Cloudy 49 9.4 39 4.1 70 70 N 18 30 30.33 1027 10 16.0934 0 0
9:35 am 09:35 Partly Cloudy 50 9.9 39 3.9 67 67 N 18 30 30.33 1027 10 16.0934 0 0
9:55 am 09:55 Partly Cloudy 51 10.3 39 3.9 65 65 N 17 28 30.33 1027 10 16.0934 0 0
10:35 am 10:35 Partly Cloudy 51 10.7 40 4.3 65 65 N 14 22 30.33 1027 10 16.0934 0 0
10:55 am 10:55 Sunny 53 11.6 39 4.1 60 60 N 14 22 30.36 1028 10 16.0934 0 0
11:15 am 11:15 Sunny 53 11.9 40 4.2 60 60 NNW 13 20 30.36 1028 10 16.0934 0 0
11:35 am 11:35 Sunny 54 12.1 38 3.5 56 56 N 18 30 30.36 1028 10 16.0934 0 0
11:55 am 11:55 Sunny 53 11.9 38 3.6 57 57 NNW 13 20 30.36 1028 10 16.0934 0 0
12:15 pm 12:15 Sunny 56 13.2 40 4.3 55 55 N 8 13 30.33 1027 10 16.0934 0 0
12:35 pm 12:35 Sunny 57 13.8 39 4.1 52 52 N 6 9 30.33 1027 10 16.0934 0 0
12:55 pm 12:55 Sunny 57 13.7 38 3.6 51 51 N 13 20 30.33 1027 10 16.0934 0 0
1:15 pm 13:15 Sunny 58 14.7 40 4.2 50 50 NNE 13 20 30.33 1027 10 16.0934 0 0
1:35 pm 13:35 Sunny 59 15.1 39 4 48 48 N 12 19 30.3 1026 10 16.0934 0 0
1:55 pm 13:55 Sunny 60 15.7 40 4.3 47 47 N 13 20 30.27 1025 10 16.0934 0 0
2:15 pm 14:15 Sunny 60 15.5 40 4.5 48 48 N 14 22 30.27 1025 10 16.0934 0 0
2:35 pm 14:35 Sunny 62 16.6 39 4.1 44 44 N 12 19 30.27 1025 10 16.0934 0 0
2:55 pm 14:55 Sunny 62 16.5 40 4.2 44 44 N 12 19 30.27 1025 10 16.0934 0 0
3:15 pm 15:15 Sunny 61 16.1 39 3.9 44 44 NNE 10 17 30.27 1025 10 16.0934 0 0
3:35 pm 15:35 Sunny 62 16.5 39 3.9 43 43 N 13 20 30.27 1025 10 16.0934 0 0
3:55 pm 15:55 Sunny 63 17 39 3.9 42 42 N 10 17 30.24 1024 10 16.0934 0 0
4:15 pm 16:15 Partly Cloudy 62 16.4 39 3.9 44 44 N 13 20 30.24 1024 10 16.0934 0 0
4:35 pm 16:35 Partly Cloudy 63 17.2 39 3.8 41 41 NNE 12 19 30.24 1024 10 16.0934 0 0
4:55 pm 16:55 Partly Cloudy 63 17 38 3.4 41 41 NNE 10 17 30.24 1024 10 16.0934 0 0
5:15 pm 17:15 Sunny 63 17.1 39 3.7 41 41 NNE 7 11 30.24 1024 10 16.0934 0 0
5:35 pm 17:35 Sunny 63 17 39 3.7 41 41 NNE 9 15 30.24 1024 10 16.0934 0 0
5:55 pm 17:55 Sunny 63 17.1 39 3.7 41 41 NNE 12 19 30.24 1024 10 16.0934 0 0
6:15 pm 18:15 Partly Cloudy 62 16.7 40 4.3 44 44 NNE 6 9 30.24 1024 10 16.0934 0 0
6:35 pm 18:35 Sunny 63 17 40 4.3 43 43 NE 12 19 30.24 1024 10 16.0934 0 0
6:55 pm 18:55 Sunny 62 16.5 39 3.7 43 43 NNE 7 11 30.24 1024 10 16.0934 0 0
7:15 pm 19:15 Sunny 62 16.5 39 4 44 44 NNE 9 15 30.24 1024 10 16.0934 0 0
7:35 pm 19:35 Sunny 60 15.8 40 4.2 46 46 NE 12 19 30.24 1024 10 16.0934 0 0
7:55 pm 19:55 Sunny 59 15.2 40 4.3 48 48 NE 10 17 30.27 1025 10 16.0934 0 0
8:15 pm 20:15 Sunny 58 14.6 39 4 49 49 ENE 10 17 30.27 1025 10 16.0934 0 0
8:35 pm 20:35 Sunny 57 14 40 4.2 52 52 NE 8 13 30.3 1026 10 16.0934 0 0
8:55 pm 20:55 Clear 56 13.1 40 4.2 55 55 NE 7 11 30.3 1026 10 16.0934 0 0
9:15 pm 21:15 Clear 54 12.1 40 4.7 61 61 NE 6 9 30.33 1027 10 16.0934 0 0
9:35 pm 21:35 Clear 52 10.9 40 4.6 65 65 NE 8 13 30.33 1027 10 16.0934 0 0
9:55 pm 21:55 Clear 51 10.8 40 4.6 66 66 NE 6 9 30.33 1027 10 16.0934 0 0
10:15 pm 22:15 Clear 50 9.8 40 4.7 71 71 NE 8 13 30.33 1027 10 16.0934 0 0
10:35 pm 22:35 Clear 50 10 40 4.5 69 69 NE 8 13 30.33 1027 10 16.0934 0 0
10:55 pm 22:55 Clear 50 9.9 40 4.5 69 69 ENE 9 15 30.33 1027 10 16.0934 0 0
11:15 pm 23:15 Clear 49 9.5 40 4.5 71 71 ENE 7 11 30.33 1027 10 16.0934 0 0
11:35 pm 23:35 Clear 49 9.3 40 4.4 72 72 ENE 8 13 30.33 1027 10 16.0934 0 0
11:55 pm 23:55 Clear 47 8.4 40 4.5 77 77 ENE 7 11 30.36 1028 10 16.0934 0 0

Powered by AerisWeather